Weather History for LKMT - December, 2012

Change the Weather History Date:

Wednesday, December 12, 2012

  Actual Average (EPKT) Record (EPKT)
Temperature  
Mean Temperature 22 °F -  
Max Temperature 27 °F 35 °F 48 °F (1999)
Min Temperature 15 °F 24 °F 0 °F (2002)
Degree Days  
Heating Degree Days 43    
Moisture  
Dew Point 19 °F    
Average Humidity 87    
Maximum Humidity 93    
Minimum Humidity 66    
Precipitation  
Precipitation 0.01 in 0.04 in - ()
Sea Level Pressure  
Sea Level Pressure 30.09 in    
Wind  
Wind Speed 4 mph ()    
Max Wind Speed 9 mph    
Max Gust Speed -    
Visibility 4.2 miles    
Events Snow    
Averages and records for this station are not official NWS values.
T = Trace of Precipitation, MM = Missing Value Source: Averaged Metar Reports

Daily Weather History Graph

Daily Weather History Graph

Search for Another Location

Airport or City:

Trip Planner

Search our weather history database for the weather conditions in past years. The results will help you decide how hot, cold, wet, or windy it might be!

Date:

Astronomy

Dec. 12, 2012 Rise Set
Actual Time 7:35 AM CET 3:46 PM CET
Civil Twilight 6:57 AM CET 4:24 PM CET
Nautical Twilight 6:16 AM CET 5:06 PM CET
Astronomical Twilight 5:37 AM CET 5:45 PM CET
Moon 6:16 AM CET (12/12) 3:07 PM CET (12/12)
Length of Visible Light 9h 27m
Length of Day
8h 11m
Waning Crescent, 1% of the Moon is Illuminated
Dec 12
Waning Crescent
Dec 13
New
Dec 20
First Quarter
Dec 28
Full
Jan 5
Last Quarter

Hourly Weather History & Observations

Time (CET) Temp. Windchill Dew Point Humidity Pressure Visibility Wind Dir Wind Speed Gust Speed Precip Events Conditions
12:00 AM 23.0 °F 15.8 °F 19.4 °F 86% 30.04 in 3.1 mi WSW 5.8 mph - N/A   Overcast
12:30 AM 23.0 °F 18.4 °F 19.4 °F 86% 30.04 in 3.1 mi SSW 3.5 mph - N/A   Overcast
1:00 AM 23 °F - 20 °F 83% 30.12 in 3 mi West 4.5 mph - - Snow Light Snow
1:00 AM 23.0 °F 18.4 °F 21.2 °F 93% 30.04 in 3.1 mi West 3.5 mph - N/A Snow Light Snow
1:30 AM 23.0 °F 17.0 °F 19.4 °F 86% 30.04 in 3.1 mi WSW 4.6 mph - N/A Snow Light Snow
2:00 AM 23.0 °F - 21.2 °F 93% 30.06 in 2.5 mi Variable 1.2 mph - N/A Snow Light Snow
2:37 AM 23.0 °F - 21.2 °F 93% 30.06 in - West 2.3 mph - N/A Snow Light Snow
3:00 AM 23.0 °F - 21.2 °F 93% 30.06 in - SW 2.3 mph - N/A Snow Light Snow
3:30 AM 23.0 °F - 21.2 °F 93% 30.06 in 2.8 mi Variable 2.3 mph - N/A Snow Light Snow
4:00 AM 23.0 °F - 21.2 °F 93% 30.06 in 2.8 mi Variable 2.3 mph - N/A Snow Light Snow
4:30 AM 23.0 °F 18.4 °F 21.2 °F 93% 30.06 in 3.1 mi SW 3.5 mph - N/A Snow Light Snow
5:00 AM 23.0 °F 17.0 °F 21.2 °F 93% 30.06 in 3.1 mi WSW 4.6 mph - N/A Snow Light Snow
5:30 AM 23.0 °F 18.4 °F 21.2 °F 93% 30.06 in - WSW 3.5 mph - N/A Snow Light Snow
6:00 AM 23.0 °F 17.0 °F 21.2 °F 93% 30.06 in 1.9 mi SW 4.6 mph - N/A Snow Light Snow
6:30 AM 23.0 °F 17.0 °F 21.2 °F 93% 30.06 in 1.9 mi SW 4.6 mph - N/A Snow Light Snow
7:00 AM 23 °F - 21 °F 88% 30.14 in 2 mi SW 4.5 mph - - Snow Light Snow
7:00 AM 23.0 °F 17.0 °F 21.2 °F 93% 30.06 in 1.6 mi SSW 4.6 mph - N/A Snow Light Snow
7:30 AM 23.0 °F 15.8 °F 21.2 °F 93% 30.06 in 1.6 mi SW 5.8 mph - N/A Snow Light Snow
8:00 AM 23.0 °F 17.0 °F 21.2 °F 93% 30.06 in 1.9 mi SW 4.6 mph - N/A Snow Light Snow
8:30 AM 23.0 °F 15.8 °F 21.2 °F 93% 30.09 in 2.2 mi SW 5.8 mph - N/A Snow Light Snow
9:00 AM 23.0 °F 17.0 °F 21.2 °F 93% 30.09 in 2.2 mi SW 4.6 mph - N/A Snow Light Snow
9:22 AM 23.0 °F 18.4 °F 21.2 °F 93% 30.09 in 1.2 mi SW 3.5 mph - N/A Snow Snow
9:30 AM 23.0 °F 18.4 °F 21.2 °F 93% 30.09 in 1.2 mi SW 3.5 mph - N/A Snow Snow
10:00 AM 24.8 °F 19.1 °F 21.2 °F 86% 30.09 in 1.9 mi SW 4.6 mph - N/A Snow Light Snow
10:30 AM 24.8 °F 17.9 °F 23.0 °F 93% 30.09 in 2.5 mi SW 5.8 mph - N/A Snow Light Snow
11:00 AM 26.6 °F 21.2 °F 23.0 °F 86% 30.09 in 2.5 mi SW 4.6 mph - N/A Snow Light Snow
11:30 AM 26.6 °F 22.6 °F 23.0 °F 86% 30.09 in 2.5 mi SW 3.5 mph - N/A Snow Light Snow
12:00 PM 24.8 °F 15.3 °F 21.2 °F 86% 30.09 in 2.2 mi NNW 9.2 mph - N/A Snow Light Snow
12:30 PM 24.8 °F 16.9 °F 21.2 °F 86% 30.09 in 3.7 mi North 6.9 mph - N/A Snow Light Snow
1:00 PM 25 °F - 18 °F 66% 30.18 in 6 mi North 6.7 mph - - Snow Light Snow
1:00 PM 24.8 °F 17.9 °F 19.4 °F 80% 30.09 in 6.2 mi North 5.8 mph - N/A Snow Light Snow
1:30 PM 24.8 °F 17.9 °F 19.4 °F 80% 30.09 in 6.2 mi North 5.8 mph - N/A Snow Light Snow
2:00 PM 26.6 °F - 19.4 °F 74% 30.09 in 6.2 mi Variable 2.3 mph - N/A   Mostly Cloudy
2:30 PM 24.8 °F - 19.4 °F 80% 30.09 in 6.2 mi Variable 2.3 mph - N/A   Overcast
3:00 PM 24.8 °F - 17.6 °F 74% 30.09 in 6.2 mi Variable 2.3 mph - N/A   Mostly Cloudy
3:30 PM 24.8 °F - 19.4 °F 80% 30.09 in 6.2 mi Variable 2.3 mph - N/A   Mostly Cloudy
4:00 PM 24.8 °F 20.5 °F 19.4 °F 80% 30.12 in 6.2 mi West 3.5 mph - N/A   Mostly Cloudy
4:30 PM 23.0 °F - 17.6 °F 80% 30.12 in 6.2 mi Variable 2.3 mph - N/A   Mostly Cloudy
5:00 PM 21.2 °F 16.4 °F 15.8 °F 80% 30.12 in 6.2 mi West 3.5 mph - N/A   Mostly Cloudy
5:30 PM 21.2 °F - 17.6 °F 86% 30.12 in 6.2 mi West 2.3 mph - N/A   Mostly Cloudy
6:00 PM 23.0 °F 17.0 °F 19.4 °F 86% 30.12 in 6.2 mi WSW 4.6 mph - N/A   Mostly Cloudy
6:30 PM 21.2 °F 14.9 °F 19.4 °F 93% 30.12 in 6.2 mi WSW 4.6 mph - N/A   Mostly Cloudy
7:00 PM 22 °F - 18 °F 79% 30.19 in 6 mi WSW 6.7 mph - - Snow Light Snow
7:00 PM 21.2 °F 13.6 °F 17.6 °F 86% 30.09 in 6.2 mi WSW 5.8 mph - N/A Snow Light Snow
7:30 PM 21.2 °F 12.6 °F 17.6 °F 86% 30.12 in 6.2 mi SW 6.9 mph - N/A Snow Light Snow
8:00 PM 21.2 °F 12.6 °F 17.6 °F 86% 30.09 in 6.2 mi SSW 6.9 mph - N/A Snow Light Snow
8:30 PM 21.2 °F 13.6 °F 17.6 °F 86% 30.12 in 6.2 mi SSW 5.8 mph - N/A Snow Light Snow
9:00 PM 21.2 °F 12.6 °F 15.8 °F 80% 30.12 in 6.2 mi SSW 6.9 mph - N/A   Overcast
9:30 PM 21.2 °F 11.7 °F 15.8 °F 80% 30.12 in 6.2 mi SSW 8.1 mph - N/A   Overcast
10:00 PM 19.4 °F 8.6 °F 15.8 °F 86% 30.12 in 6.2 mi SSW 9.2 mph - N/A Snow Light Snow
10:30 PM 19.4 °F 8.6 °F 15.8 °F 86% 30.12 in 6.2 mi SW 9.2 mph - N/A   Overcast
11:00 PM 17.6 °F 9.3 °F 12.2 °F 79% 30.12 in 6.2 mi SSW 5.8 mph - N/A   Mostly Cloudy
11:30 PM 15.8 °F 6.1 °F 12.2 °F 86% 30.12 in 6.2 mi SSW 6.9 mph - N/A   Partly Cloudy